Regional Weather Roundup
Issued by NWS Upton, NY

Current Version | Previous Version | Graphics & Text | Print | Product List | Glossary Off
Versions: 1 2 3 4 5 6 7 8 9 10 11 12 13 14 15 16 17 18 19 20 21 22 23 24 25 26 27

000
ASUS41 KOKX 282308
RWROKX

REGIONAL WEATHER ROUNDUP
NATIONAL WEATHER SERVICE NEW YORK NY
700 PM EDT TUE MAR 28 2017

NOTE: "FAIR" INDICATES FEW OR NO CLOUDS BELOW 12,000 FEET WITH NO
SIGNIFICANT WEATHER AND/OR OBSTRUCTIONS TO VISIBILITY.

NYZ071-072-176-178-NJZ106-104-290000-
NEW YORK CITY METRO AREA

CITY           SKY/WX    TMP DP  RH WIND       PRES   REMARKS
Central Park   LGT RAIN  41  39  93 NE10      29.93R FOG
Wall St Helipt LGT RAIN  42  40  92 NE13      29.91R FOG
LaGuardia APRT LGT RAIN  42  38  85 NE17      29.90R FOG
Kennedy INTL   LGT RAIN  43  42  97 N9        29.90R VSB 1/2
Breezy Point     N/A     41 N/A N/A N7          N/A
Newark/Liberty HVY RAIN  42  41  96 NE9       29.90R FOG
Teterboro      RAIN      43  41  93 NE3       29.90R VSB 1
$$

NYZ177-179-078>081-290000-
LONG ISLAND NEW YORK

CITY           SKY/WX    TMP DP  RH WIND       PRES   REMARKS
Jones Beach      N/A     43 N/A N/A E9          N/A
Matinecock PT    N/A     37 N/A N/A E14         N/A  WCI  29
Farmingdale    LGT RAIN  41  40  96 N10       29.89R VSB 3/4
MacArthur/ISP  FOG       43  43 100 NE9       29.88R VSB 1/8
Shirley        LGT RAIN  42  42 100 VRB3      29.89S FOG
Westhampton    LGT RAIN  41  39  93 E9        29.90S
East Hampton   LGT RAIN  39  38  96 E8        29.90R WCI  34
Montauk          N/A     41  40  96 VRB7      29.91S
$$

NYZ052-065-067-290000-
HUDSON VALLEY

CITY           SKY/WX    TMP DP  RH WIND       PRES   REMARKS
White Plains   LGT RAIN  42  40  92 E6        29.89S VSB 1
Newburgh       LGT RAIN  45  45 100 VRB5      29.92R FOG
Montgomery     LGT RAIN  46  44  93 CALM      29.90R FOG
Poughkeepsie   LGT RAIN  43  42  97 N3        29.92R FOG
Albany         CLOUDY    47  43  86 CALM      29.91R FOG
$$

NJZ001-105-106-008-010-013-015-019>022-104-290000-
NEW JERSEY

CITY           SKY/WX    TMP DP  RH WIND       PRES   REMARKS
Newark/Liberty HVY RAIN  42  41  96 NE9       29.90R FOG
Teterboro      RAIN      43  41  93 NE3       29.90R VSB 1
Caldwell       LGT RAIN  44  43  96 E5        29.90S FOG
Somerville     LGT RAIN  47  45  93 N3        29.88R FOG
Linden         RAIN      43  41  93 CALM      29.90R
Sussex         LGT RAIN  47  45  93 NE5       29.90R FOG
Andover          N/A     46  45  96 CALM      29.89R
Trenton        CLOUDY    47  46  97 NE7       29.88R
Millville      CLOUDY    56  56 100 N5        29.83R
Atlantic City  CLOUDY    50  48  93 NE3       29.83S
Wrightstown    CLOUDY    46  45  93 N8        29.84R
Toms River     HVY RAIN  45  44  97 NE10      29.87R FOG
Belmar         CLOUDY    42  41  96 N8        29.88F FOG
$$

PAZ047>061-062-071-290000-
EASTERN PENNSYLVANIA

CITY           SKY/WX    TMP DP  RH WIND       PRES   REMARKS
Philadelphia   DRIZZLE   51  49  92 N10G23    29.88R FOG
Allentown      LGT RAIN  50  47  89 N5        29.89R FOG
Scranton       LGT RAIN  49  48  97 CALM      29.90R
$$

CTZ002-004>006-009-010-012-RIZ004-006-007-MAZ004-011-015-290000-
SOUTHERN NEW ENGLAND
 IN CT

CITY           SKY/WX    TMP DP  RH WIND       PRES   REMARKS
Bradley INTL   LGT RAIN  43  42  97 NE3       29.93R
Hartford       LGT RAIN  44  42  93 N6        29.93R FOG
Danbury        LGT RAIN  43  43 100 NE3       29.91S FOG
Wtrbury/Oxford FOG       43  37  81 NE6       29.91F VSB 3/4
Bridgeport     CLOUDY    41  39  93 E8        29.91S
Meriden        CLOUDY    45  43  93 N5        29.91S FOG
New Haven      CLOUDY    41  40  96 SE3       29.90S
Chester        NOT AVBL
Groton         CLOUDY    44  41  89 E8        29.91R
Wilimantic     LGT RAIN  44  42  93 N5        29.93R

 IN RI

CITY           SKY/WX    TMP DP  RH WIND       PRES   REMARKS
Providence     LGT RAIN  42  40  92 NE8       29.93S
Block Island   LGT RAIN  40  39  97 E12       29.91S WCI  33
Westerly       LGT RAIN  44  43  96 NE5       29.92R
 IN MA

CITY           SKY/WX    TMP DP  RH WIND       PRES   REMARKS
Boston         LGT RAIN  38  38 100 NE9       29.96F FOG     WCI  31
Worcester      LGT RAIN  36  35  96 NE7       29.91F VSB 1/4 WCI  30
Westfield      LGT RAIN  42  41  96 CALM      29.93R FOG
Provincetown   LGT RAIN  40  39  97 E6        29.96F FOG
Nantucket      CLOUDY    41  39  93 NE10      29.92F
$$

ANZ330-335-338-340-345-350-353-355-290000-
COASTAL MARINE OBSERVATIONS


STATION/POSITION TIME  SKY/WX   TEMP    WIND        PRES    VSBY  WAVE
                                AIR SEA DIR/SP/G                  HT/PER
                 (UTC)          (F)     (DEG/KT/KT) (MB)    (MI)  (FT/S)
NY HARB ENTRANCE 2250            41 42   50/ 16/ 17 1011.7          4/ 5
20 S FIRE ISLAND 2250            42 41   60/ 10/ 14 1010.4          4/ 6
GREAT SOUTH BAY  NOT AVBL
23 SSW MONTAUK P 2150            41 42              1012.4          5/ 4
15 E BARNEGAT LI 2230               44                N/A           4/ 9
HUDSON CANYON    2250            47 45  210/  4/  4 1010.7          4/10
KINGS POINT      2230            39 40              1012.3
EXECUTION ROCKS  NOT AVBL
CENTRAL LI SOUND 2230            40      80/ 12/ 16   N/A           2/ 4
EASTERN LI SOUND NOT AVBL
ROBBINS REEF     2230            42      20/  7/  8 1012.6
$$


>>>>>>>>>>>>>>>>>>>>>>>>>>>> KEY <<<<<<<<<<<<<<<<<<<<<<<<<<<
>                                                          <
>     SKY/WX - Sky Condition/Present Weather               <
>     TMP    - Temperature in Fahrenheit                   <
>     DP     - Dew Point in Fahrenheit                     <
>     RH     - Relative Humidity in Percent                <
>     WIND   - Direction (from) and Speed in MPH           <
>     PRES   - Mean Sea Level Pressure (inches of Hg)      <
>     WCI    - Wind Chill Index                            <
>     VSB    - VISIBILITY IN MILES                         <
>     HX     - HEAT INDEX                                  <
>     TC     - TEMPERATURE IN CELSIUS                      <
>     VRB    - VARIABLE WIND DIRECTION                     <
>                                                          <
>>>>>>>>>>>>>>>>>>>>>>>>>>>> KEY <<<<<<<<<<<<<<<<<<<<<<<<<<<




USA.gov is the U.S. government's official web portal to all federal, state and local government web resources and services.